| time (UTC) | temp F | wind direction | speed MPH | gust MPH | rain 1hr in | rain 24hr in | rain mn in | humidity % | barometer mb |
| 20260509102944 | 75 | 201 | 0.0 | 3.0 | 0.00 | 0.00 | 0.00 | 100 | 1012.6 |
| 20260509102438 | 75 | 168 | 1.0 | 4.0 | 0.00 | 0.00 | 0.00 | 100 | 1012.6 |
| 20260509101945 | 75 | 124 | 1.0 | 4.0 | 0.00 | 0.00 | 0.00 | 100 | 1012.6 |
| 20260509101439 | 75 | 178 | 1.0 | 4.0 | 0.00 | 0.00 | 0.00 | 100 | 1012.7 |
| 20260509101000 | 75 | 229 | 1.0 | 4.0 | 0.00 | 0.00 | 0.00 | 100 | 1012.7 |
| 20260509100446 | 75 | 188 | 1.0 | 3.0 | 0.00 | 0.00 | 0.00 | 100 | 1012.7 |
| 20260509095944 | 75 | 204 | 1.0 | 3.0 | 0.00 | 0.00 | 0.00 | 100 | 1012.5 |
| 20260509095459 | 74 | 230 | 2.0 | 3.0 | 0.00 | 0.00 | 0.00 | 100 | 1012.5 |
| 20260509094947 | 74 | 224 | 1.0 | 3.0 | 0.00 | 0.00 | 0.00 | 100 | 1012.5 |
| 20260509094439 | 74 | 191 | 0.0 | 2.0 | 0.00 | 0.00 | 0.00 | 100 | 1012.4 |
| 20260509093936 | 74 | 299 | 0.0 | 0.0 | 0.00 | 0.00 | 0.00 | 99 | 1012.4 |
| 20260509093433 | 74 | 299 | 0.0 | 0.0 | 0.00 | 0.00 | 0.00 | 99 | 1012.4 |
| 20260509092945 | 74 | 299 | 0.0 | 0.0 | 0.00 | 0.00 | 0.00 | 99 | 1012.4 |
| 20260509092438 | 73 | 299 | 0.0 | 0.0 | 0.00 | 0.00 | 0.00 | 98 | 1012.4 |
| 20260509091935 | 73 | 299 | 0.0 | 0.0 | 0.00 | 0.00 | 0.00 | 98 | 1012.4 |
| 20260509091442 | 73 | 299 | 0.0 | 0.0 | 0.00 | 0.00 | 0.00 | 98 | 1012.5 |
| 20260509090940 | 73 | 299 | 0.0 | 0.0 | 0.00 | 0.00 | 0.00 | 97 | 1012.5 |
| 20260509090436 | 73 | 299 | 0.0 | 0.0 | 0.00 | 0.00 | 0.00 | 97 | 1012.5 |
| 20260509085942 | 73 | 299 | 0.0 | 0.0 | 0.00 | 0.00 | 0.00 | 97 | 1012.6 |
| 20260509085437 | 73 | 299 | 0.0 | 0.0 | 0.00 | 0.00 | 0.00 | 97 | 1012.6 |
| 20260509084933 | 73 | 299 | 0.0 | 0.0 | 0.00 | 0.00 | 0.00 | 97 | 1012.6 |
| 20260509084443 | 73 | 299 | 0.0 | 0.0 | 0.00 | 0.00 | 0.00 | 97 | 1012.7 |
| 20260509083936 | 73 | 299 | 0.0 | 0.0 | 0.00 | 0.00 | 0.00 | 97 | 1012.7 |
| 20260509083433 | 73 | 299 | 0.0 | 0.0 | 0.00 | 0.00 | 0.00 | 97 | 1012.7 |
| 20260509082943 | 73 | 299 | 0.0 | 0.0 | 0.00 | 0.00 | 0.00 | 97 | 1012.7 |
| 20260509082440 | 73 | 299 | 0.0 | 0.0 | 0.00 | 0.00 | 0.00 | 97 | 1012.7 |
| 20260509081933 | 73 | 299 | 0.0 | 0.0 | 0.00 | 0.00 | 0.00 | 97 | 1012.7 |
| 20260509081508 | 73 | 299 | 0.0 | 0.0 | 0.00 | 0.00 | 0.00 | 97 | 1012.8 |
| 20260509080943 | 73 | 299 | 0.0 | 0.0 | 0.00 | 0.00 | 0.00 | 96 | 1012.8 |
| 20260509080440 | 73 | 299 | 0.0 | 0.0 | 0.00 | 0.00 | 0.00 | 96 | 1012.8 |
| 20260509075937 | 73 | 299 | 0.0 | 0.0 | 0.00 | 0.00 | 0.00 | 96 | 1012.8 |
| 20260509075445 | 73 | 299 | 0.0 | 0.0 | 0.00 | 0.00 | 0.00 | 96 | 1012.8 |
| 20260509074940 | 73 | 299 | 0.0 | 0.0 | 0.00 | 0.00 | 0.00 | 95 | 1012.8 |
| 20260509074436 | 73 | 299 | 0.0 | 0.0 | 0.00 | 0.00 | 0.00 | 95 | 1012.8 |
| 20260509074004 | 73 | 299 | 0.0 | 0.0 | 0.00 | 0.00 | 0.00 | 94 | 1012.8 |
| 20260509073440 | 73 | 299 | 0.0 | 0.0 | 0.00 | 0.00 | 0.00 | 94 | 1012.8 |
| 20260509072936 | 73 | 299 | 0.0 | 0.0 | 0.00 | 0.00 | 0.00 | 94 | 1012.9 |
| 20260509072453 | 73 | 299 | 0.0 | 0.0 | 0.00 | 0.00 | 0.00 | 93 | 1012.9 |
| 20260509072006 | 73 | 299 | 0.0 | 0.0 | 0.00 | 0.00 | 0.00 | 93 | 1012.9 |
| 20260509071458 | 73 | 299 | 0.0 | 0.0 | 0.00 | 0.00 | 0.00 | 92 | 1013.0 |
| 20260509070953 | 73 | 299 | 0.0 | 0.0 | 0.00 | 0.00 | 0.00 | 92 | 1013.0 |
| 20260509070509 | 73 | 299 | 0.0 | 0.0 | 0.00 | 0.00 | 0.00 | 92 | 1013.0 |
| 20260509065942 | 73 | 299 | 0.0 | 0.0 | 0.00 | 0.00 | 0.00 | 92 | 1013.0 |
| 20260509065438 | 74 | 297 | 0.0 | 0.0 | 0.00 | 0.00 | 0.00 | 92 | 1013.0 |
| 20260509064934 | 74 | 297 | 0.0 | 0.0 | 0.00 | 0.00 | 0.00 | 92 | 1013.0 |
| 20260509064443 | 74 | 297 | 0.0 | 0.0 | 0.00 | 0.00 | 0.00 | 92 | 1013.1 |
| 20260509063938 | 74 | 297 | 0.0 | 0.0 | 0.00 | 0.00 | 0.00 | 92 | 1013.1 |
| 20260509063433 | 74 | 297 | 0.0 | 0.0 | 0.00 | 0.00 | 0.00 | 92 | 1013.1 |
| 20260509063008 | 74 | 297 | 0.0 | 0.0 | 0.00 | 0.00 | 0.00 | 92 | 1013.2 |
| 20260509062440 | 74 | 297 | 0.0 | 0.0 | 0.00 | 0.00 | 0.00 | 92 | 1013.2 |
| 20260509061954 | 74 | 297 | 0.0 | 0.0 | 0.00 | 0.00 | 0.00 | 92 | 1013.2 |
| 20260509061450 | 74 | 297 | 0.0 | 0.0 | 0.00 | 0.00 | 0.00 | 92 | 1013.3 |
| 20260509061004 | 74 | 297 | 0.0 | 0.0 | 0.00 | 0.00 | 0.00 | 92 | 1013.3 |
| 20260509060439 | 74 | 297 | 0.0 | 0.0 | 0.00 | 0.00 | 0.00 | 92 | 1013.3 |
| 20260509055946 | 75 | 297 | 0.0 | 2.0 | 0.00 | 0.00 | 0.00 | 92 | 1013.5 |
| 20260509055442 | 75 | 297 | 0.0 | 2.0 | 0.00 | 0.00 | 0.00 | 92 | 1013.5 |
| 20260509054959 | 75 | 256 | 0.0 | 4.0 | 0.00 | 0.00 | 0.00 | 92 | 1013.5 |
| 20260509054448 | 75 | 256 | 0.0 | 4.0 | 0.00 | 0.00 | 0.00 | 92 | 1013.5 |
| 20260509053943 | 75 | 266 | 2.0 | 5.0 | 0.00 | 0.00 | 0.00 | 92 | 1013.5 |
| 20260509053437 | 75 | 229 | 2.0 | 5.0 | 0.00 | 0.00 | 0.00 | 92 | 1013.5 |
| 20260509053011 | 75 | 242 | 2.0 | 5.0 | 0.00 | 0.00 | 0.00 | 92 | 1013.8 |
| 20260509052503 | 75 | 228 | 2.0 | 6.0 | 0.00 | 0.00 | 0.00 | 91 | 1013.8 |
| 20260509051937 | 75 | 212 | 1.0 | 6.0 | 0.00 | 0.00 | 0.00 | 91 | 1013.8 |
| 20260509051454 | 75 | 222 | 3.0 | 5.0 | 0.00 | 0.00 | 0.00 | 91 | 1013.8 |
| 20260509050940 | 76 | 242 | 2.0 | 5.0 | 0.00 | 0.00 | 0.00 | 90 | 1013.8 |
| 20260509050438 | 76 | 214 | 2.0 | 5.0 | 0.00 | 0.00 | 0.00 | 90 | 1013.8 |
| 20260509045933 | 76 | 290 | 2.0 | 5.0 | 0.00 | 0.00 | 0.00 | 90 | 1013.7 |
| 20260509045446 | 76 | 279 | 2.0 | 5.0 | 0.00 | 0.00 | 0.00 | 89 | 1013.7 |
| 20260509044942 | 76 | 266 | 1.0 | 4.0 | 0.00 | 0.00 | 0.00 | 89 | 1013.7 |
| 20260509044439 | 76 | 205 | 1.0 | 3.0 | 0.00 | 0.00 | 0.00 | 89 | 1013.5 |
| 20260509043949 | 76 | 233 | 1.0 | 4.0 | 0.00 | 0.00 | 0.00 | 89 | 1013.5 |
| 20260509043443 | 77 | 218 | 2.0 | 4.0 | 0.00 | 0.00 | 0.00 | 88 | 1013.5 |
| 20260509042939 | 77 | 203 | 2.0 | 4.0 | 0.00 | 0.00 | 0.00 | 88 | 1013.5 |
| 20260509042508 | 77 | 212 | 2.0 | 3.0 | 0.00 | 0.00 | 0.00 | 88 | 1013.5 |
| 20260509042003 | 77 | 215 | 1.0 | 3.0 | 0.00 | 0.00 | 0.00 | 87 | 1013.5 |
| 20260509041438 | 77 | 188 | 0.0 | 2.0 | 0.00 | 0.00 | 0.00 | 87 | 1013.4 |
| 20260509040947 | 77 | 188 | 1.0 | 2.0 | 0.00 | 0.00 | 0.00 | 87 | 1013.4 |
| 20260509040442 | 77 | 191 | 0.0 | 2.0 | 0.00 | 0.00 | 0.00 | 87 | 1013.4 |
| 20260509035940 | 77 | 188 | 0.0 | 2.0 | 0.00 | 0.00 | 0.00 | 87 | 1013.6 |
| 20260509035445 | 77 | 188 | 0.0 | 2.0 | 0.00 | 0.00 | 0.00 | 86 | 1013.6 |
| 20260509034941 | 77 | 188 | 1.0 | 3.0 | 0.00 | 0.00 | 0.00 | 86 | 1013.6 |
| 20260509034437 | 77 | 131 | 0.0 | 3.0 | 0.00 | 0.00 | 0.00 | 86 | 1013.5 |
| 20260509033933 | 77 | 139 | 0.0 | 3.0 | 0.00 | 0.00 | 0.00 | 86 | 1013.5 |
| 20260509033442 | 77 | 138 | 1.0 | 3.0 | 0.00 | 0.00 | 0.00 | 86 | 1013.5 |
| 20260509032938 | 77 | 136 | 0.0 | 3.0 | 0.00 | 0.00 | 0.00 | 86 | 1013.4 |
| 20260509032512 | 77 | 139 | 1.0 | 5.0 | 0.00 | 0.00 | 0.00 | 86 | 1013.4 |
| 20260509031946 | 77 | 162 | 2.0 | 5.0 | 0.00 | 0.00 | 0.00 | 86 | 1013.4 |
| 20260509031436 | 78 | 170 | 1.0 | 4.0 | 0.00 | 0.00 | 0.00 | 86 | 1013.6 |
| 20260509030937 | 78 | 141 | 1.0 | 4.0 | 0.00 | 0.00 | 0.00 | 86 | 1013.6 |
| 20260509030434 | 78 | 129 | 0.0 | 5.0 | 0.00 | 0.00 | 0.00 | 86 | 1013.6 |
| 20260509025930 | 78 | 185 | 2.0 | 5.0 | 0.00 | 0.00 | 0.00 | 85 | 1013.5 |
| 20260509025450 | 78 | 185 | 1.0 | 3.0 | 0.00 | 0.00 | 0.00 | 85 | 1013.5 |
| 20260509024945 | 78 | 179 | 0.0 | 2.0 | 0.00 | 0.00 | 0.00 | 85 | 1013.5 |
| 20260509024439 | 78 | 178 | 0.0 | 6.0 | 0.00 | 0.00 | 0.00 | 85 | 1013.5 |
| 20260509023951 | 78 | 203 | 1.0 | 6.0 | 0.00 | 0.00 | 0.00 | 85 | 1013.5 |
| 20260509023501 | 78 | 184 | 1.0 | 3.0 | 0.00 | 0.00 | 0.00 | 85 | 1013.5 |
| 20260509022937 | 78 | 159 | 1.0 | 3.0 | 0.00 | 0.00 | 0.00 | 85 | 1013.3 |
| 20260509022446 | 78 | 167 | 0.0 | 3.0 | 0.00 | 0.00 | 0.00 | 84 | 1013.3 |
| 20260509021942 | 78 | 140 | 1.0 | 8.0 | 0.00 | 0.00 | 0.00 | 84 | 1013.3 |
| 20260509021437 | 78 | 191 | 3.0 | 8.0 | 0.00 | 0.00 | 0.00 | 84 | 1013.3 |
| 20260509020947 | 78 | 151 | 2.0 | 5.0 | 0.00 | 0.00 | 0.00 | 84 | 1013.3 |
| 20260509020441 | 78 | 182 | 1.0 | 2.0 | 0.00 | 0.00 | 0.00 | 83 | 1013.3 |
| 20260509015936 | 78 | 146 | 0.0 | 2.0 | 0.00 | 0.00 | 0.00 | 83 | 1013.2 |
| 20260509015446 | 78 | 146 | 0.0 | 2.0 | 0.00 | 0.00 | 0.00 | 83 | 1013.2 |
| 20260509014942 | 78 | 146 | 0.0 | 2.0 | 0.00 | 0.00 | 0.00 | 83 | 1013.2 |
| 20260509014438 | 79 | 144 | 0.0 | 3.0 | 0.00 | 0.00 | 0.00 | 83 | 1013.1 |
| 20260509013934 | 79 | 144 | 0.0 | 3.0 | 0.00 | 0.00 | 0.00 | 83 | 1013.1 |
| 20260509013446 | 79 | 151 | 0.0 | 3.0 | 0.00 | 0.00 | 0.00 | 83 | 1013.1 |
| 20260509012943 | 79 | 166 | 0.0 | 3.0 | 0.00 | 0.00 | 0.00 | 82 | 1013.0 |
| 20260509012440 | 79 | 129 | 0.0 | 4.0 | 0.00 | 0.00 | 0.00 | 82 | 1013.0 |
| 20260509011956 | 79 | 129 | 1.0 | 4.0 | 0.00 | 0.00 | 0.00 | 82 | 1013.0 |
| 20260509011505 | 79 | 152 | 1.0 | 4.0 | 0.00 | 0.00 | 0.00 | 81 | 1012.9 |
| 20260509010952 | 79 | 151 | 1.0 | 4.0 | 0.00 | 0.00 | 0.00 | 80 | 1012.9 |
| 20260509010503 | 79 | 149 | 0.0 | 1.0 | 0.00 | 0.00 | 0.00 | 80 | 1012.9 |
| 20260509005951 | 79 | 149 | 0.0 | 2.0 | 0.00 | 0.00 | 0.00 | 79 | 1012.8 |
| 20260509005501 | 79 | 149 | 0.0 | 5.0 | 0.00 | 0.00 | 0.00 | 79 | 1012.8 |
| 20260509004949 | 79 | 164 | 0.0 | 5.0 | 0.00 | 0.00 | 0.00 | 79 | 1012.8 |
| 20260509004442 | 80 | 154 | 0.0 | 3.0 | 0.00 | 0.00 | 0.00 | 78 | 1012.7 |
| 20260509003937 | 80 | 154 | 1.0 | 3.0 | 0.00 | 0.00 | 0.00 | 78 | 1012.7 |
| 20260509003505 | 80 | 154 | 0.0 | 4.0 | 0.00 | 0.00 | 0.00 | 78 | 1012.7 |
| 20260509002957 | 80 | 153 | 0.0 | 4.0 | 0.00 | 0.00 | 0.00 | 77 | 1012.7 |
| 20260509002446 | 80 | 125 | 0.0 | 3.0 | 0.00 | 0.00 | 0.00 | 77 | 1012.7 |
| 20260509001941 | 80 | 182 | 1.0 | 3.0 | 0.00 | 0.00 | 0.00 | 76 | 1012.7 |
| 20260509001437 | 80 | 163 | 0.0 | 3.0 | 0.00 | 0.00 | 0.00 | 76 | 1012.4 |
| 20260509000947 | 80 | 120 | 1.0 | 4.0 | 0.00 | 0.00 | 0.00 | 75 | 1012.4 |
| 20260509000447 | 80 | 151 | 0.0 | 5.0 | 0.00 | 0.00 | 0.00 | 75 | 1012.4 |
| 20260508235941 | 81 | 29 | 1.0 | 5.0 | 0.00 | 0.00 | 0.00 | 74 | 1012.2 |
| 20260508235435 | 81 | 129 | 3.0 | 5.0 | 0.00 | 0.00 | 0.00 | 74 | 1012.2 |
| 20260508234940 | 81 | 46 | 2.0 | 5.0 | 0.00 | 0.00 | 0.00 | 74 | 1012.2 |
| 20260508234436 | 81 | 135 | 1.0 | 7.0 | 0.00 | 0.00 | 0.00 | 73 | 1011.9 |
| 20260508233941 | 81 | 101 | 2.0 | 7.0 | 0.00 | 0.00 | 0.00 | 72 | 1011.9 |
| 20260508233435 | 81 | 149 | 1.0 | 5.0 | 0.00 | 0.00 | 0.00 | 71 | 1011.9 |
| 20260508232932 | 82 | 174 | 1.0 | 5.0 | 0.00 | 0.00 | 0.00 | 71 | 1011.8 |
| 20260508232440 | 82 | 135 | 1.0 | 5.0 | 0.00 | 0.00 | 0.00 | 70 | 1011.8 |
| 20260508231937 | 82 | 113 | 2.0 | 6.0 | 0.00 | 0.00 | 0.00 | 69 | 1011.8 |
| 20260508231435 | 83 | 115 | 2.0 | 5.0 | 0.00 | 0.00 | 0.00 | 68 | 1011.8 |
| 20260508230941 | 83 | 72 | 1.0 | 4.0 | 0.00 | 0.00 | 0.00 | 68 | 1011.8 |
| 20260508230436 | 83 | 158 | 1.0 | 6.0 | 0.00 | 0.00 | 0.00 | 67 | 1011.8 |
| 20260508230002 | 83 | 108 | 2.0 | 6.0 | 0.00 | 0.00 | 0.00 | 66 | 1011.7 |
| 20260508225438 | 83 | 125 | 0.0 | 5.0 | 0.00 | 0.00 | 0.00 | 65 | 1011.7 |
| 20260508224948 | 83 | 115 | 1.0 | 4.0 | 0.00 | 0.00 | 0.00 | 66 | 1011.7 |
| 20260508224502 | 83 | 50 | 1.0 | 6.0 | 0.00 | 0.00 | 0.00 | 65 | 1011.6 |
| 20260508223938 | 84 | 185 | 3.0 | 8.0 | 0.00 | 0.00 | 0.00 | 65 | 1011.6 |
| 20260508223445 | 84 | 174 | 3.0 | 8.0 | 0.00 | 0.00 | 0.00 | 63 | 1011.6 |
| 20260508222941 | 85 | 136 | 1.0 | 5.0 | 0.00 | 0.00 | 0.00 | 63 | 1011.7 |
| 20260508222436 | 85 | 131 | 0.0 | 6.0 | 0.00 | 0.00 | 0.00 | 62 | 1011.7 |
| 20260508221943 | 85 | 51 | 2.0 | 9.0 | 0.00 | 0.00 | 0.00 | 62 | 1011.7 |
| 20260508221503 | 86 | 130 | 3.0 | 9.0 | 0.00 | 0.00 | 0.00 | 61 | 1011.7 |
| 20260508220938 | 86 | 153 | 3.0 | 7.0 | 0.00 | 0.00 | 0.00 | 59 | 1011.7 |
| 20260508220504 | 86 | 98 | 3.0 | 7.0 | 0.00 | 0.00 | 0.00 | 59 | 1011.7 |
| 20260508215939 | 86 | 83 | 3.0 | 7.0 | 0.00 | 0.00 | 0.00 | 58 | 1011.6 |
| 20260508215435 | 86 | 105 | 2.0 | 6.0 | 0.00 | 0.00 | 0.00 | 57 | 1011.6 |
| 20260508214951 | 87 | 114 | 2.0 | 10.0 | 0.00 | 0.00 | 0.00 | 57 | 1011.6 |
| 20260508214439 | 87 | 34 | 2.0 | 10.0 | 0.00 | 0.00 | 0.00 | 57 | 1011.9 |
| 20260508213934 | 88 | 82 | 3.0 | 6.0 | 0.00 | 0.00 | 0.00 | 57 | 1011.9 |
| 20260508213444 | 88 | 127 | 2.0 | 7.0 | 0.00 | 0.00 | 0.00 | 56 | 1011.9 |
| 20260508212939 | 88 | 86 | 4.0 | 7.0 | 0.00 | 0.00 | 0.00 | 55 | 1012.1 |
| 20260508212435 | 88 | 81 | 1.0 | 6.0 | 0.00 | 0.00 | 0.00 | 56 | 1012.1 |
| 20260508211951 | 88 | 138 | 2.0 | 9.0 | 0.00 | 0.00 | 0.00 | 54 | 1012.1 |
| 20260508211441 | 89 | 86 | 3.0 | 9.0 | 0.00 | 0.00 | 0.00 | 54 | 1012.1 |
| 20260508210938 | 89 | 74 | 2.0 | 10.0 | 0.00 | 0.00 | 0.00 | 53 | 1012.1 |
| 20260508210454 | 89 | 99 | 3.0 | 10.0 | 0.00 | 0.00 | 0.00 | 53 | 1012.1 |
| 20260508205946 | 89 | 79 | 2.0 | 6.0 | 0.00 | 0.00 | 0.00 | 54 | 1012.2 |
| 20260508205444 | 90 | 81 | 2.0 | 9.0 | 0.00 | 0.00 | 0.00 | 54 | 1012.2 |
| 20260508204939 | 90 | 40 | 3.0 | 9.0 | 0.00 | 0.00 | 0.00 | 54 | 1012.2 |
| 20260508204444 | 90 | 39 | 1.0 | 7.0 | 0.00 | 0.00 | 0.00 | 53 | 1012.2 |
| 20260508203941 | 90 | 25 | 2.0 | 7.0 | 0.00 | 0.00 | 0.00 | 54 | 1012.2 |
| 20260508203457 | 90 | 283 | 2.0 | 10.0 | 0.00 | 0.00 | 0.00 | 53 | 1012.2 |
| 20260508202945 | 90 | 124 | 3.0 | 6.0 | 0.00 | 0.00 | 0.00 | 52 | 1012.3 |
| 20260508202442 | 91 | 27 | 2.0 | 4.0 | 0.00 | 0.00 | 0.00 | 53 | 1012.3 |
| 20260508201939 | 90 | 35 | 2.0 | 5.0 | 0.00 | 0.00 | 0.00 | 55 | 1012.3 |
| 20260508201430 | 90 | 73 | 1.0 | 10.0 | 0.00 | 0.00 | 0.00 | 54 | 1012.7 |
| 20260508200948 | 90 | 15 | 2.0 | 10.0 | 0.00 | 0.00 | 0.00 | 53 | 1012.7 |
| 20260508200445 | 91 | 66 | 2.0 | 7.0 | 0.00 | 0.00 | 0.00 | 53 | 1012.7 |
| 20260508195938 | 91 | 55 | 3.0 | 6.0 | 0.00 | 0.00 | 0.00 | 53 | 1012.8 |
| 20260508195500 | 91 | 26 | 3.0 | 6.0 | 0.00 | 0.00 | 0.00 | 53 | 1012.8 |
| 20260508194934 | 90 | 58 | 2.0 | 4.0 | 0.00 | 0.00 | 0.00 | 52 | 1012.8 |
| 20260508194445 | 90 | 77 | 1.0 | 5.0 | 0.00 | 0.00 | 0.00 | 53 | 1013.2 |
| 20260508193938 | 90 | 70 | 2.0 | 9.0 | 0.00 | 0.00 | 0.00 | 53 | 1013.2 |
| 20260508193453 | 90 | 125 | 4.0 | 9.0 | 0.00 | 0.00 | 0.00 | 53 | 1013.2 |
| 20260508192942 | 91 | 68 | 2.0 | 7.0 | 0.00 | 0.00 | 0.00 | 51 | 1013.3 |
| 20260508192436 | 92 | 132 | 2.0 | 11.0 | 0.00 | 0.00 | 0.00 | 51 | 1013.3 |
| 20260508191946 | 92 | 66 | 3.0 | 11.0 | 0.00 | 0.00 | 0.00 | 50 | 1013.3 |
| 20260508191438 | 91 | 71 | 2.0 | 5.0 | 0.00 | 0.00 | 0.00 | 51 | 1013.4 |
| 20260508190936 | 91 | 57 | 3.0 | 7.0 | 0.00 | 0.00 | 0.00 | 50 | 1013.4 |
| 20260508190453 | 91 | 57 | 2.0 | 7.0 | 0.00 | 0.00 | 0.00 | 50 | 1013.4 |
| 20260508185949 | 91 | 106 | 2.0 | 7.0 | 0.00 | 0.00 | 0.00 | 50 | 1013.7 |
| 20260508185442 | 91 | 131 | 3.0 | 10.0 | 0.00 | 0.00 | 0.00 | 50 | 1013.7 |
| 20260508184937 | 91 | 45 | 2.0 | 10.0 | 0.00 | 0.00 | 0.00 | 51 | 1013.7 |
| 20260508184446 | 91 | 101 | 2.0 | 7.0 | 0.00 | 0.00 | 0.00 | 49 | 1013.8 |
| 20260508183943 | 92 | 35 | 2.0 | 7.0 | 0.00 | 0.00 | 0.00 | 51 | 1013.8 |
| 20260508183436 | 91 | 29 | 2.0 | 4.0 | 0.00 | 0.00 | 0.00 | 51 | 1013.8 |
| 20260508182933 | 91 | 19 | 2.0 | 9.0 | 0.00 | 0.00 | 0.00 | 50 | 1013.9 |
| 20260508182510 | 91 | 39 | 1.0 | 9.0 | 0.00 | 0.00 | 0.00 | 52 | 1013.9 |
| 20260508181943 | 91 | 68 | 1.0 | 6.0 | 0.00 | 0.00 | 0.00 | 50 | 1013.9 |
| 20260508181439 | 91 | 30 | 2.0 | 6.0 | 0.00 | 0.00 | 0.00 | 51 | 1014.0 |
| 20260508180948 | 91 | 39 | 2.0 | 11.0 | 0.00 | 0.00 | 0.00 | 52 | 1014.0 |
| 20260508180443 | 91 | 141 | 2.0 | 6.0 | 0.00 | 0.00 | 0.00 | 50 | 1014.0 |
| 20260508175959 | 91 | 103 | 2.0 | 6.0 | 0.00 | 0.00 | 0.00 | 53 | 1014.2 |
| 20260508175500 | 91 | 57 | 3.0 | 6.0 | 0.00 | 0.00 | 0.00 | 52 | 1014.2 |
| 20260508174954 | 90 | 55 | 2.0 | 5.0 | 0.00 | 0.00 | 0.00 | 52 | 1014.2 |
| 20260508174442 | 90 | 23 | 2.0 | 5.0 | 0.00 | 0.00 | 0.00 | 53 | 1014.3 |
| 20260508173939 | 90 | 35 | 2.0 | 8.0 | 0.00 | 0.00 | 0.00 | 53 | 1014.3 |
| 20260508173436 | 90 | 103 | 2.0 | 8.0 | 0.00 | 0.00 | 0.00 | 54 | 1014.3 |
| 20260508172943 | 90 | 52 | 2.0 | 6.0 | 0.00 | 0.00 | 0.00 | 51 | 1014.4 |
| 20260508172440 | 90 | 35 | 1.0 | 4.0 | 0.00 | 0.00 | 0.00 | 53 | 1014.4 |
| 20260508171936 | 90 | 36 | 2.0 | 6.0 | 0.00 | 0.00 | 0.00 | 53 | 1014.4 |
| 20260508171445 | 89 | 25 | 2.0 | 6.0 | 0.00 | 0.00 | 0.00 | 53 | 1014.7 |
| 20260508170958 | 89 | 22 | 0.0 | 4.0 | 0.00 | 0.00 | 0.00 | 53 | 1014.7 |
| 20260508170445 | 89 | 36 | 2.0 | 4.0 | 0.00 | 0.00 | 0.00 | 52 | 1014.7 |
| 20260508165939 | 88 | 70 | 2.0 | 11.0 | 0.00 | 0.00 | 0.00 | 54 | 1014.8 |
| 20260508165507 | 88 | 73 | 3.0 | 11.0 | 0.00 | 0.00 | 0.00 | 53 | 1014.8 |
| 20260508164941 | 88 | 29 | 2.0 | 6.0 | 0.00 | 0.00 | 0.00 | 54 | 1014.8 |
| 20260508164437 | 87 | 359 | 2.0 | 6.0 | 0.00 | 0.00 | 0.00 | 56 | 1014.9 |
| 20260508163947 | 87 | 44 | 3.0 | 6.0 | 0.00 | 0.00 | 0.00 | 57 | 1014.9 |
| 20260508163443 | 87 | 81 | 1.0 | 5.0 | 0.00 | 0.00 | 0.00 | 56 | 1014.9 |
| 20260508163000 | 87 | 51 | 2.0 | 5.0 | 0.00 | 0.00 | 0.00 | 55 | 1015.1 |
| 20260508162442 | 87 | 37 | 3.0 | 5.0 | 0.00 | 0.00 | 0.00 | 56 | 1015.1 |
| 20260508161938 | 87 | 72 | 2.0 | 5.0 | 0.00 | 0.00 | 0.00 | 57 | 1015.1 |
| 20260508161451 | 87 | 46 | 2.0 | 5.0 | 0.00 | 0.00 | 0.00 | 57 | 1015.3 |
| 20260508160944 | 87 | 56 | 1.0 | 4.0 | 0.00 | 0.00 | 0.00 | 59 | 1015.3 |
| 20260508160439 | 86 | 18 | 1.0 | 5.0 | 0.00 | 0.00 | 0.00 | 60 | 1015.3 |
| 20260508155936 | 86 | 121 | 2.0 | 5.0 | 0.00 | 0.00 | 0.00 | 59 | 1015.3 |
| 20260508155442 | 86 | 46 | 2.0 | 6.0 | 0.00 | 0.00 | 0.00 | 60 | 1015.3 |
| 20260508154935 | 86 | 33 | 3.0 | 6.0 | 0.00 | 0.00 | 0.00 | 59 | 1015.3 |
| 20260508154442 | 86 | 23 | 2.0 | 6.0 | 0.00 | 0.00 | 0.00 | 60 | 1015.4 |
| 20260508153958 | 85 | 49 | 4.0 | 6.0 | 0.00 | 0.00 | 0.00 | 60 | 1015.4 |
| 20260508153453 | 85 | 37 | 2.0 | 5.0 | 0.00 | 0.00 | 0.00 | 60 | 1015.4 |
| 20260508152948 | 85 | 26 | 3.0 | 5.0 | 0.00 | 0.00 | 0.00 | 61 | 1015.4 |
| 20260508152443 | 84 | 41 | 2.0 | 5.0 | 0.00 | 0.00 | 0.00 | 62 | 1015.4 |
| 20260508151958 | 84 | 64 | 2.0 | 5.0 | 0.00 | 0.00 | 0.00 | 61 | 1015.4 |
| 20260508151444 | 83 | 82 | 2.0 | 4.0 | 0.00 | 0.00 | 0.00 | 65 | 1015.5 |
| 20260508150941 | 83 | 7 | 1.0 | 4.0 | 0.00 | 0.00 | 0.00 | 64 | 1015.5 |
| 20260508150437 | 83 | 75 | 1.0 | 5.0 | 0.00 | 0.00 | 0.00 | 66 | 1015.5 |
| 20260508145946 | 82 | 45 | 1.0 | 6.0 | 0.00 | 0.00 | 0.00 | 66 | 1015.4 |
| 20260508145441 | 82 | 336 | 1.0 | 6.0 | 0.00 | 0.00 | 0.00 | 66 | 1015.4 |
| 20260508144939 | 82 | 352 | 1.0 | 4.0 | 0.00 | 0.00 | 0.00 | 67 | 1015.4 |
| 20260508144435 | 82 | 3 | 1.0 | 5.0 | 0.00 | 0.00 | 0.00 | 66 | 1015.5 |
| 20260508143946 | 82 | 41 | 2.0 | 6.0 | 0.00 | 0.00 | 0.00 | 68 | 1015.5 |
| 20260508143456 | 82 | 310 | 3.0 | 6.0 | 0.00 | 0.00 | 0.00 | 69 | 1015.5 |
| 20260508142950 | 81 | 356 | 2.0 | 4.0 | 0.00 | 0.00 | 0.00 | 70 | 1015.4 |
| 20260508142445 | 81 | 4 | 0.0 | 6.0 | 0.00 | 0.00 | 0.00 | 70 | 1015.4 |
| 20260508141938 | 81 | 349 | 3.0 | 7.0 | 0.00 | 0.00 | 0.00 | 70 | 1015.4 |
| 20260508141436 | 80 | 321 | 5.0 | 9.0 | 0.00 | 0.00 | 0.00 | 70 | 1015.4 |
| 20260508140933 | 80 | 302 | 3.0 | 9.0 | 0.00 | 0.00 | 0.00 | 71 | 1015.4 |
| 20260508140447 | 80 | 300 | 2.0 | 7.0 | 0.00 | 0.00 | 0.00 | 72 | 1015.4 |
| 20260508135941 | 79 | 350 | 4.0 | 7.0 | 0.00 | 0.00 | 0.00 | 74 | 1015.4 |
| 20260508135436 | 79 | 347 | 1.0 | 6.0 | 0.00 | 0.00 | 0.00 | 74 | 1015.4 |
| 20260508134943 | 78 | 300 | 2.0 | 7.0 | 0.00 | 0.00 | 0.00 | 76 | 1015.4 |
| 20260508134440 | 78 | 307 | 3.0 | 7.0 | 0.00 | 0.00 | 0.00 | 76 | 1015.3 |
| 20260508133933 | 78 | 354 | 1.0 | 7.0 | 0.00 | 0.00 | 0.00 | 77 | 1015.3 |
| 20260508133447 | 77 | 326 | 4.0 | 7.0 | 0.00 | 0.00 | 0.00 | 78 | 1015.3 |
| 20260508132941 | 77 | 345 | 2.0 | 6.0 | 0.00 | 0.00 | 0.00 | 80 | 1015.3 |
| 20260508132457 | 77 | 336 | 3.0 | 5.0 | 0.00 | 0.00 | 0.00 | 80 | 1015.3 |
| 20260508132006 | 76 | 271 | 2.0 | 5.0 | 0.00 | 0.00 | 0.00 | 81 | 1015.3 |
| 20260508131501 | 76 | 312 | 0.0 | 5.0 | 0.00 | 0.00 | 0.00 | 83 | 1015.2 |
| 20260508130936 | 75 | 347 | 2.0 | 6.0 | 0.00 | 0.00 | 0.00 | 84 | 1015.2 |
| 20260508130446 | 75 | 358 | 3.0 | 6.0 | 0.00 | 0.00 | 0.00 | 84 | 1015.2 |
| 20260508125943 | 75 | 308 | 2.0 | 4.0 | 0.00 | 0.00 | 0.00 | 85 | 1015.2 |
| 20260508125437 | 74 | 311 | 2.0 | 3.0 | 0.00 | 0.00 | 0.00 | 86 | 1015.2 |
| 20260508124940 | 74 | 281 | 1.0 | 3.0 | 0.00 | 0.00 | 0.00 | 86 | 1015.2 |
| 20260508124453 | 73 | 248 | 2.0 | 3.0 | 0.00 | 0.00 | 0.00 | 87 | 1015.1 |
| 20260508124004 | 73 | 310 | 2.0 | 4.0 | 0.00 | 0.00 | 0.00 | 87 | 1015.1 |
| 20260508123437 | 73 | 318 | 0.0 | 4.0 | 0.00 | 0.00 | 0.00 | 87 | 1015.1 |
| 20260508122946 | 72 | 297 | 2.0 | 4.0 | 0.00 | 0.00 | 0.00 | 88 | 1015.0 |
| 20260508122439 | 72 | 351 | 2.0 | 4.0 | 0.00 | 0.00 | 0.00 | 88 | 1015.0 |
| 20260508121935 | 71 | 301 | 1.0 | 3.0 | 0.00 | 0.00 | 0.00 | 88 | 1015.0 |
| 20260508121443 | 71 | 311 | 2.0 | 3.0 | 0.00 | 0.00 | 0.00 | 88 | 1014.9 |
| 20260508120940 | 71 | 224 | 1.0 | 3.0 | 0.00 | 0.00 | 0.00 | 89 | 1014.9 |
| 20260508120437 | 70 | 282 | 1.0 | 4.0 | 0.00 | 0.00 | 0.00 | 90 | 1014.9 |
| 20260508115934 | 70 | 326 | 2.0 | 3.0 | 0.00 | 0.00 | 0.00 | 89 | 1014.8 |
| 20260508115509 | 70 | 290 | 1.0 | 3.0 | 0.00 | 0.00 | 0.00 | 89 | 1014.8 |
| 20260508114943 | 70 | 285 | 1.0 | 3.0 | 0.00 | 0.00 | 0.00 | 89 | 1014.8 |
| 20260508114440 | 69 | 285 | 0.0 | 1.0 | 0.00 | 0.00 | 0.00 | 89 | 1014.4 |
| 20260508113937 | 69 | 284 | 0.0 | 4.0 | 0.00 | 0.00 | 0.00 | 88 | 1014.4 |
| 20260508113447 | 69 | 278 | 2.0 | 4.0 | 0.00 | 0.00 | 0.00 | 89 | 1014.4 |
| 20260508112943 | 69 | 311 | 1.0 | 3.0 | 0.00 | 0.00 | 0.00 | 89 | 1014.4 |
| 20260508112439 | 69 | 311 | 2.0 | 3.0 | 0.00 | 0.00 | 0.00 | 89 | 1014.4 |
| 20260508111944 | 69 | 302 | 0.0 | 3.0 | 0.00 | 0.00 | 0.00 | 89 | 1014.4 |
| 20260508111440 | 68 | 319 | 1.0 | 3.0 | 0.00 | 0.00 | 0.00 | 89 | 1014.3 |
| 20260508110937 | 68 | 318 | 2.0 | 3.0 | 0.00 | 0.00 | 0.00 | 89 | 1014.3 |
| 20260508110447 | 68 | 297 | 1.0 | 3.0 | 0.00 | 0.00 | 0.00 | 89 | 1014.3 |
| 20260508105943 | 68 | 306 | 0.0 | 2.0 | 0.00 | 0.00 | 0.00 | 89 | 1014.1 |
| 20260508105440 | 68 | 306 | 0.0 | 3.0 | 0.00 | 0.00 | 0.00 | 89 | 1014.1 |
| 20260508104936 | 68 | 306 | 1.0 | 3.0 | 0.00 | 0.00 | 0.00 | 89 | 1014.1 |
| 20260508104432 | 67 | 304 | 0.0 | 3.0 | 0.00 | 0.00 | 0.00 | 88 | 1013.8 |
| 20260508103944 | 67 | 278 | 0.0 | 3.0 | 0.00 | 0.00 | 0.00 | 88 | 1013.8 |
| 20260508103458 | 67 | 278 | 0.0 | 3.0 | 0.00 | 0.00 | 0.00 | 87 | 1013.8 |